Imrali, Turkey

5:16 PM +03 on May 23, 2017 (GMT +0300)
Imrali

Weather History for 17060 - October, 2012

Change the Weather History Date:

Wednesday, October 3, 2012

  Actual Average Record
Temperature  
Mean Temperature 72 °F -  
Max Temperature 78 °F 65 °F - ()
Min Temperature 66 °F 54 °F - ()
Cooling Degree Days 7    
Growing Degree Days 22 (Base 50)    
Moisture  
Dew Point 66 °F    
Average Humidity 80    
Maximum Humidity 100    
Minimum Humidity 48    
Precipitation  
Precipitation 0.00 in - - ()
Sea Level Pressure  
Sea Level Pressure 29.94 in    
Wind  
Wind Speed 5 mph ()    
Max Wind Speed 10 mph    
Max Gust Speed -    
Visibility 5.3 miles    
Events Rain    
T = Trace of Precipitation, MM = Missing Value Source: Averaged Metar Reports

Daily Weather History Graph

Daily Weather History Graph

Search for Another Location

Airport or City:

Trip Planner

Search our weather history database for the weather conditions in past years. The results will help you decide how hot, cold, wet, or windy it might be!

Date:

Astronomy

Oct. 03, 2012 Rise Set
Actual Time 7:03 AM EEST 6:43 PM EEST
Civil Twilight 6:36 AM EEST 7:10 PM EEST
Nautical Twilight 6:04 AM EEST 7:42 PM EEST
Astronomical Twilight 5:32 AM EEST 8:14 PM EEST
Moon 8:20 PM EEST (10/3) 10:10 AM EEST (10/3)
Length of Visible Light 12h 34m
Length of Day
11h 39m
Waning Gibbous, 90% of the Moon is Illuminated
Oct 3
Waning Gibbous
Oct 8
Last Quarter
Oct 15
New
Oct 22
First Quarter
Oct 29
Full

Hourly Weather History & Observations

Time (EEST) Temp. Dew Point Humidity Pressure Visibility Wind Dir Wind Speed Gust Speed Precip Events Conditions
12:20 AM 71.6 °F 66.2 °F 83% 30.01 in 4.3 mi SE 4.6 mph - N/A   Unknown
12:50 AM 71.6 °F 68.0 °F 88% 30.01 in 4.3 mi SE 3.5 mph - N/A   Unknown
1:20 AM 71.6 °F 68.0 °F 88% 29.98 in - Variable 2.3 mph - N/A   Clear
1:50 AM 71.6 °F 69.8 °F 94% 29.98 in 6.2 mi Variable 2.3 mph - N/A   Scattered Clouds
2:20 AM 69.8 °F 69.8 °F 100% 29.95 in 4.3 mi Variable 1.2 mph - N/A   Scattered Clouds
2:50 AM 69.8 °F 68.0 °F 94% 29.95 in 6.2 mi NW 6.9 mph - N/A   Scattered Clouds
3:00 AM 69 °F 67 °F 92% 29.96 in 6 mi NW 6.9 mph - - Rain Light Rain Showers
3:20 AM 69.8 °F 68.0 °F 94% 29.95 in 6.2 mi WNW 2.3 mph - N/A   Partly Cloudy
3:50 AM 68.0 °F 66.2 °F 94% 29.95 in 6.2 mi Variable 1.2 mph - N/A   Partly Cloudy
4:20 AM 68.0 °F 66.2 °F 94% 29.95 in 6.2 mi NNW 5.8 mph - N/A   Partly Cloudy
4:50 AM 66.2 °F 66.2 °F 100% 29.95 in - NNW 6.9 mph - N/A   Clear
5:20 AM 68.0 °F 66.2 °F 94% 29.92 in - NW 8.1 mph - N/A   Clear
6:20 AM 68.0 °F 66.2 °F 94% 29.95 in - East 4.6 mph - N/A   Clear
6:50 AM 69.8 °F 66.2 °F 88% 29.95 in - Variable 2.3 mph - N/A   Clear
7:50 AM 69.8 °F 64.4 °F 83% 29.95 in - ENE 3.5 mph - N/A   Clear
8:20 AM 71.6 °F 64.4 °F 78% 29.95 in 3.7 mi Variable 2.3 mph - N/A   Unknown
8:50 AM 71.6 °F 64.4 °F 78% 29.95 in 3.7 mi Variable 2.3 mph - N/A   Unknown
9:00 AM 71 °F 65 °F 75% 29.96 in 4 mi WNW 2.3 mph - -   Mist
9:20 AM 71.6 °F 66.2 °F 83% 29.95 in 3.7 mi Variable 2.3 mph - N/A   Scattered Clouds
9:50 AM 73.4 °F 66.2 °F 78% 29.95 in 3.7 mi SSW 3.5 mph - N/A   Scattered Clouds
10:20 AM 73.4 °F 66.2 °F 78% 29.95 in 3.7 mi SE 4.6 mph - N/A   Scattered Clouds
10:50 AM 73.4 °F 64.4 °F 73% 29.98 in 6.2 mi SSE 3.5 mph - N/A   Scattered Clouds
11:20 AM 75.2 °F 64.4 °F 69% 29.95 in 6.2 mi SSE 4.6 mph - N/A   Scattered Clouds
11:50 AM 77.0 °F 64.4 °F 65% 29.95 in 6.2 mi SSW 5.8 mph - N/A   Scattered Clouds
12:20 PM 75.2 °F 64.4 °F 69% 29.95 in 6.2 mi SSW 6.9 mph - N/A   Scattered Clouds
12:50 PM 75.2 °F 64.4 °F 69% 29.95 in 6.2 mi SSW 5.8 mph - N/A   Scattered Clouds
1:20 PM 75.2 °F 62.6 °F 65% 29.95 in 6.2 mi SW 5.8 mph - N/A   Partly Cloudy
1:50 PM 77.0 °F 62.6 °F 61% 29.95 in 6.2 mi SW 5.8 mph - N/A   Partly Cloudy
2:20 PM 78.8 °F 62.6 °F 57% 29.92 in - SW 6.9 mph - N/A   Clear
2:50 PM 78.8 °F 62.6 °F 57% 29.92 in - SW 8.1 mph - N/A   Clear
3:00 PM 78 °F 62 °F 48% 29.93 in 6 mi SW 8.1 mph - -  
3:20 PM 77.0 °F 62.6 °F 61% 29.92 in - SW 9.2 mph - N/A   Clear
3:50 PM 77.0 °F 62.6 °F 61% 29.92 in - SW 8.1 mph - N/A   Clear
4:20 PM 77.0 °F 62.6 °F 61% 29.92 in - SW 8.1 mph - N/A   Clear
4:50 PM 75.2 °F 66.2 °F 73% 29.89 in - SW 8.1 mph - N/A   Clear
5:20 PM 75.2 °F 68.0 °F 78% 29.89 in - SW 6.9 mph - N/A   Clear
5:50 PM 73.4 °F 69.8 °F 88% 29.89 in - SSW 4.6 mph - N/A   Clear
6:20 PM 73.4 °F 69.8 °F 88% 29.89 in - SW 4.6 mph - N/A   Clear
6:50 PM 73.4 °F 68.0 °F 83% 29.89 in - Variable 1.2 mph - N/A   Clear
7:20 PM 75.2 °F 68.0 °F 78% 29.89 in - SSE 3.5 mph - N/A   Clear
7:50 PM 73.4 °F 69.8 °F 88% 29.92 in - ESE 3.5 mph - N/A   Clear
8:20 PM 73.4 °F 69.8 °F 88% 29.92 in - East 5.8 mph - N/A   Clear
8:50 PM 75.2 °F 66.2 °F 73% 29.92 in - NNE 9.2 mph - N/A   Clear
9:00 PM 74 °F 67 °F 73% 29.93 in 6 mi NNE 9.2 mph - -  
9:20 PM 73.4 °F 68.0 °F 83% 29.92 in - Variable 9.2 mph - N/A   Clear
9:50 PM 73.4 °F 68.0 °F 83% 29.92 in - North 9.2 mph - N/A   Clear
10:20 PM 73.4 °F 68.0 °F 83% 29.95 in - NNE 10.4 mph - N/A   Clear
10:50 PM 71.6 °F 68.0 °F 88% 29.95 in - North 9.2 mph - N/A   Clear
11:20 PM 71.6 °F 68.0 °F 88% 29.92 in - NNE 8.1 mph - N/A   Clear
11:50 PM 69.8 °F 68.0 °F 94% 29.92 in - North 6.9 mph - N/A   Clear